Location: Unspecified
(0.0000°N, 0.0000°E)
Time: 05:22:16
(UTC+00:00)

Explorer 11/Cluster Stage 4 - Visible Passes

Search period start: 18 June 2019 00:00
Search period end: 28 June 2019 00:00
Orbit: 467 x 1260 km, 28.8° (Epoch: 17 June)

Date Brightness Start Highest point End Pass type
(mag) Time Alt. Az. Time Alt. Az. Time Alt. Az.
18 Jun 9.2 21:03:24 10° NNW 21:06:30 19° N 21:06:30 19° N visible
19 Jun 9.0 20:52:30 10° NNW 20:56:10 22° N 20:56:10 22° N visible
20 Jun 8.7 20:41:40 10° NNW 20:45:53 26° N 20:45:53 26° N visible
21 Jun 8.4 20:30:54 10° NNW 20:35:39 31° NNE 20:35:39 31° NNE visible
22 Jun 8.0 20:20:11 10° NW 20:25:27 36° NNE 20:25:27 36° NNE visible
23 Jun 7.7 20:09:30 10° NW 20:15:18 43° NNE 20:15:18 43° NNE visible
24 Jun 7.3 19:58:54 10° NW 20:04:41 50° NNE 20:05:13 49° NE visible
24 Jun 9.7 21:47:17 10° WNW 21:47:21 10° WNW 21:47:21 10° WNW visible
25 Jun 7.1 19:48:21 10° NW 19:54:00 60° NNE 19:55:10 52° ENE visible
25 Jun 9.6 21:37:01 10° W 21:37:18 11° W 21:37:18 11° W visible
26 Jun 9.2 05:05:36 10° S 05:07:50 11° SSE 05:09:57 10° SE visible
26 Jun 6.8 19:37:50 10° NW 19:43:20 72° NNE 19:45:09 48° E visible
26 Jun 9.5 21:26:49 10° W 21:27:18 12° W 21:27:18 12° W visible
27 Jun 9.1 04:53:42 10° SSW 04:57:24 14° SSE 05:00:50 10° SE visible
27 Jun 6.7 19:27:24 10° WNW 19:32:43 86° NNE 19:35:11 40° ESE visible
27 Jun 9.4 21:16:43 10° W 21:17:19 13° WSW 21:17:19 13° WSW visible
